• Em Portugal
  • Lista de países
  • Para 7 dias
  • Temperatura da água
  • Mapas de satélite
  • Mapa do tempo
  • Widgets de tempo
  • user-avatar
    Iniciar Sessão

    Previsão horária em Jalalabad

    Hoje, 24 Janeiro, Quarta-feira

    Tempo Temperatura Precipitação Vento Pressão Humidade
    00:00 +11°C° 0 mm 1 m/s 705 mmHg 22%
    01:00 +10°C° 0 mm 1 m/s 705 mmHg 22%
    02:00 +10°C° 0 mm 1 m/s 705 mmHg 22%
    03:00 +10°C° 0 mm 1 m/s 705 mmHg 22%
    04:00 +9°C° 0 mm 1 m/s 705 mmHg 22%
    05:00 +9°C° 0 mm 1 m/s 705 mmHg 22%
    06:00 +9°C° 0 mm 1 m/s 706 mmHg 22%
    07:00 +9°C° 0 mm 1 m/s 706 mmHg 22%
    08:00 +9°C° 0 mm 1 m/s 707 mmHg 22%
    09:00 +11°C° 0 mm 1 m/s 707 mmHg 20%
    10:00 +13°C° 0 mm 1 m/s 707 mmHg 18%
    11:00 +15°C° 0 mm 1 m/s 707 mmHg 15%
    12:00 +16°C° 0 mm 2 m/s 707 mmHg 16%
    13:00 +16°C° 0 mm 2 m/s 707 mmHg 16%
    14:00 +17°C° 0 mm 2 m/s 707 mmHg 16%
    15:00 +16°C° 0 mm 2 m/s 707 mmHg 18%
    16:00 +16°C° 0 mm 2 m/s 707 mmHg 19%
    17:00 +15°C° 0 mm 1 m/s 707 mmHg 21%
    18:00 +14°C° 0 mm 1 m/s 708 mmHg 24%
    19:00 +12°C° 0 mm 1 m/s 708 mmHg 27%
    20:00 +11°C° 0 mm 1 m/s 708 mmHg 29%
    21:00 +10°C° 0 mm 1 m/s 709 mmHg 29%
    22:00 +10°C° 0 mm 1 m/s 709 mmHg 29%
    23:00 +10°C° 0 mm 1 m/s 709 mmHg 29%

    Amanhã, 25 Janeiro, Quinta-feira

    Tempo Temperatura Precipitação Vento Pressão Humidade
    00:00 +9°C° 0 mm 1 m/s 708 mmHg 29%
    01:00 +9°C° 0 mm 1 m/s 708 mmHg 29%
    02:00 +9°C° 0 mm 1 m/s 708 mmHg 29%
    03:00 +8°C° 0 mm 1 m/s 708 mmHg 29%
    04:00 +8°C° 0 mm 1 m/s 708 mmHg 28%
    05:00 +8°C° 0 mm 1 m/s 707 mmHg 27%
    06:00 +8°C° 0 mm 1 m/s 708 mmHg 27%
    07:00 +8°C° 0 mm 1 m/s 708 mmHg 26%
    08:00 +8°C° 0 mm 1 m/s 708 mmHg 25%
    09:00 +10°C° 0 mm 2 m/s 708 mmHg 21%
    10:00 +13°C° 0 mm 2 m/s 708 mmHg 18%
    11:00 +15°C° 0 mm 2 m/s 708 mmHg 15%
    12:00 +16°C° 0 mm 2 m/s 708 mmHg 14%
    13:00 +17°C° 0 mm 2 m/s 707 mmHg 13%
    14:00 +18°C° 0 mm 3 m/s 707 mmHg 13%
    15:00 +17°C° 0 mm 2 m/s 707 mmHg 14%
    16:00 +17°C° 0 mm 2 m/s 707 mmHg 16%
    17:00 +16°C° 0 mm 1 m/s 707 mmHg 17%
    18:00 +15°C° 0 mm 1 m/s 707 mmHg 19%
    19:00 +14°C° 0 mm 2 m/s 708 mmHg 20%
    20:00 +12°C° 0 mm 2 m/s 709 mmHg 22%
    21:00 +12°C° 0 mm 2 m/s 709 mmHg 22%
    22:00 +10°C° 0 mm 2 m/s 709 mmHg 22%
    23:00 +10°C° 0 mm 2 m/s 709 mmHg 22%

    Depois de amanhã, 26 Janeiro, Sexta-feira

    Tempo Temperatura Precipitação Vento Pressão Humidade
    00:00 +9°C° 0 mm 2 m/s 709 mmHg 23%
    01:00 +9°C° 0 mm 2 m/s 709 mmHg 23%
    02:00 +9°C° 0 mm 2 m/s 709 mmHg 23%
    03:00 +8°C° 0 mm 2 m/s 709 mmHg 23%
    04:00 +8°C° 0 mm 2 m/s 709 mmHg 23%
    05:00 +8°C° 0 mm 2 m/s 709 mmHg 24%
    06:00 +8°C° 0 mm 2 m/s 709 mmHg 23%
    07:00 +8°C° 0 mm 2 m/s 709 mmHg 23%
    08:00 +8°C° 0 mm 2 m/s 710 mmHg 23%
    09:00 +10°C° 0 mm 2 m/s 709 mmHg 20%
    10:00 +13°C° 0 mm 2 m/s 709 mmHg 17%
    11:00 +16°C° 0 mm 1 m/s 709 mmHg 14%
    12:00 +16°C° 0 mm 1 m/s 708 mmHg 14%
    13:00 +18°C° 0 mm 1 m/s 708 mmHg 13%
    14:00 +18°C° 0 mm 1 m/s 707 mmHg 13%
    15:00 +18°C° 0 mm 1 m/s 707 mmHg 14%
    16:00 +18°C° 0 mm 1 m/s 707 mmHg 16%
    17:00 +16°C° 0 mm 1 m/s 707 mmHg 17%
    18:00 +15°C° 0 mm 1 m/s 707 mmHg 19%
    19:00 +13°C° 0 mm 1 m/s 708 mmHg 22%
    20:00 +12°C° 0 mm 1 m/s 708 mmHg 24%
    21:00 +11°C° 0 mm 1 m/s 708 mmHg 24%
    22:00 +11°C° 0 mm 1 m/s 708 mmHg 25%
    23:00 +11°C° 0 mm 1 m/s 709 mmHg 25%

    27 Janeiro, Sábado

    Tempo Temperatura Precipitação Vento Pressão Humidade
    00:00 +10°C° 0 mm 1 m/s 708 mmHg 25%
    01:00 +10°C° 0 mm 1 m/s 708 mmHg 25%
    02:00 +9°C° 0 mm 1 m/s 708 mmHg 25%
    03:00 +9°C° 0 mm 1 m/s 708 mmHg 26%
    04:00 +9°C° 0 mm 1 m/s 708 mmHg 26%
    05:00 +8°C° 0 mm 1 m/s 708 mmHg 26%
    06:00 +8°C° 0 mm 2 m/s 708 mmHg 25%
    07:00 +8°C° 0 mm 2 m/s 708 mmHg 25%
    08:00 +8°C° 0 mm 2 m/s 708 mmHg 25%
    09:00 +11°C° 0 mm 1 m/s 708 mmHg 22%
    10:00 +13°C° 0 mm 1 m/s 708 mmHg 19%
    11:00 +15°C° 0 mm 1 m/s 708 mmHg 16%
    12:00 +15°C° 0 mm 1 m/s 707 mmHg 16%
    13:00 +16°C° 0 mm 1 m/s 707 mmHg 15%
    14:00 +16°C° 0 mm 2 m/s 706 mmHg 15%
    15:00 +16°C° 0 mm 2 m/s 706 mmHg 16%
    16:00 +16°C° 0 mm 2 m/s 706 mmHg 17%
    17:00 +15°C° 0 mm 2 m/s 706 mmHg 18%
    18:00 +14°C° 0 mm 2 m/s 707 mmHg 20%
    19:00 +13°C° 0 mm 1 m/s 707 mmHg 22%
    20:00 +11°C° 0 mm 1 m/s 708 mmHg 25%
    21:00 +11°C° 0 mm 1 m/s 708 mmHg 25%
    22:00 +10°C° 0 mm 1 m/s 709 mmHg 25%
    23:00 +10°C° 0 mm 1 m/s 709 mmHg 26%

    28 Janeiro, Domingo

    Tempo Temperatura Precipitação Vento Pressão Humidade
    00:00 +10°C° 0 mm 1 m/s 709 mmHg 26%
    01:00 +9°C° 0 mm 1 m/s 708 mmHg 27%
    02:00 +9°C° 0 mm 1 m/s 708 mmHg 27%
    03:00 +9°C° 0 mm 1 m/s 708 mmHg 27%
    04:00 +8°C° 0 mm 1 m/s 708 mmHg 28%
    05:00 +8°C° 0 mm 1 m/s 708 mmHg 28%
    06:00 +8°C° 0 mm 1 m/s 708 mmHg 28%
    07:00 +8°C° 0 mm 1 m/s 708 mmHg 28%
    08:00 +9°C° 0 mm 1 m/s 709 mmHg 27%
    09:00 +11°C° 0 mm 1 m/s 709 mmHg 25%
    10:00 +12°C° 0 mm 1 m/s 709 mmHg 22%
    11:00 +14°C° 0 mm 1 m/s 709 mmHg 20%
    12:00 +15°C° 0 mm 1 m/s 708 mmHg 20%
    13:00 +15°C° 0 mm 2 m/s 708 mmHg 20%
    14:00 +16°C° 0 mm 2 m/s 707 mmHg 20%
    15:00 +16°C° 0 mm 2 m/s 707 mmHg 21%
    16:00 +15°C° 0 mm 2 m/s 707 mmHg 22%
    17:00 +15°C° 0 mm 1 m/s 707 mmHg 23%
    18:00 +14°C° 0 mm 1 m/s 708 mmHg 25%
    19:00 +14°C° 0 mm 1 m/s 708 mmHg 27%
    20:00 +13°C° 0 mm 1 m/s 709 mmHg 29%
    21:00 +13°C° 0,1 mm 1 m/s 709 mmHg 32%
    22:00 +12°C° 0,1 mm 2 m/s 709 mmHg 35%
    23:00 +12°C° 0,1 mm 2 m/s 709 mmHg 38%

    29 Janeiro, Segunda-feira

    Tempo Temperatura Precipitação Vento Pressão Humidade
    00:00 +12°C° 0,2 mm 2 m/s 709 mmHg 41%
    01:00 +12°C° 0,2 mm 2 m/s 709 mmHg 44%
    02:00 +12°C° 0,2 mm 2 m/s 709 mmHg 47%
    03:00 +10°C° 0,4 mm 2 m/s 709 mmHg 50%
    04:00 +10°C° 0,4 mm 2 m/s 709 mmHg 53%
    05:00 +10°C° 0,4 mm 2 m/s 709 mmHg 57%
    06:00 +9°C° 0,4 mm 2 m/s 710 mmHg 58%
    07:00 +9°C° 0,4 mm 2 m/s 710 mmHg 60%
    08:00 +9°C° 0,4 mm 2 m/s 711 mmHg 62%
    09:00 +9°C° 0,5 mm 2 m/s 711 mmHg 63%
    10:00 +10°C° 0,5 mm 2 m/s 711 mmHg 63%
    11:00 +10°C° 0,5 mm 2 m/s 711 mmHg 64%
    12:00 +10°C° 0,6 mm 2 m/s 711 mmHg 65%
    13:00 +10°C° 0,6 mm 3 m/s 710 mmHg 66%
    14:00 +11°C° 0,6 mm 3 m/s 710 mmHg 66%
    15:00 +11°C° 0,3 mm 3 m/s 710 mmHg 66%
    16:00 +12°C° 0,3 mm 2 m/s 710 mmHg 66%
    17:00 +12°C° 0,3 mm 2 m/s 710 mmHg 66%
    18:00 +10°C° 0,7 mm 2 m/s 710 mmHg 69%
    19:00 +10°C° 0,7 mm 2 m/s 710 mmHg 72%
    20:00 +10°C° 0,7 mm 1 m/s 711 mmHg 75%
    21:00 +9°C° 0,9 mm 2 m/s 711 mmHg 76%
    22:00 +9°C° 0,9 mm 2 m/s 711 mmHg 77%
    23:00 +9°C° 0,9 mm 2 m/s 711 mmHg 79%
    Mostrar mais